TimeCST,TemperatureF,Dew PointF,Humidity,Sea Level PressureIn,VisibilityMPH,Wind Direction,Wind SpeedMPH,Gust SpeedMPH,PrecipitationIn,Events,Conditions,WindDirDegrees,DateUTC
12:15 AM,33.8,30.2,87,29.84,10.0,SSE,8.1,-,N/A,,Overcast,160,2012-12-15 06:15:00
12:35 AM,33.8,30.2,87,29.83,10.0,SSE,8.1,-,N/A,,Mostly Cloudy,160,2012-12-15 06:35:00
12:55 AM,33.8,30.2,87,29.82,10.0,SSE,9.2,-,N/A,,Overcast,150,2012-12-15 06:55:00
1:15 AM,33.8,30.2,87,29.81,10.0,SSE,9.2,16.1,N/A,,Overcast,160,2012-12-15 07:15:00
1:35 AM,33.8,30.2,87,29.81,10.0,SSE,9.2,-,N/A,,Overcast,150,2012-12-15 07:35:00
1:55 AM,33.8,30.2,87,29.79,10.0,SSE,6.9,-,N/A,,Mostly Cloudy,150,2012-12-15 07:55:00
2:15 AM,35.6,30.2,81,29.79,10.0,SSE,3.5,-,N/A,,Mostly Cloudy,150,2012-12-15 08:15:00
2:35 AM,35.6,32.0,87,29.78,10.0,SSE,6.9,-,N/A,,Overcast,150,2012-12-15 08:35:00
2:55 AM,35.6,32.0,87,29.78,10.0,SSE,4.6,-,0.01,,Overcast,150,2012-12-15 08:55:00
3:15 AM,35.6,32.0,87,29.78,10.0,SSE,9.2,-,N/A,,Overcast,160,2012-12-15 09:15:00
3:35 AM,35.6,32.0,87,29.76,10.0,SSE,10.4,17.3,0.01,,Overcast,160,2012-12-15 09:35:00
3:55 AM,35.6,32.0,87,29.76,10.0,SSE,6.9,-,0.02,,Overcast,160,2012-12-15 09:55:00
4:15 AM,35.6,32.0,87,29.76,10.0,SSE,10.4,-,N/A,,Overcast,150,2012-12-15 10:15:00
4:35 AM,35.6,32.0,87,29.75,10.0,SSE,6.9,-,0.01,,Overcast,160,2012-12-15 10:35:00
4:55 AM,35.6,32.0,87,29.74,10.0,SSE,9.2,-,0.01,,Overcast,150,2012-12-15 10:55:00
5:15 AM,35.6,32.0,87,29.74,7.0,SSE,9.2,-,0.01,,Overcast,150,2012-12-15 11:15:00
5:35 AM,35.6,32.0,87,29.73,7.0,SE,4.6,-,0.01,,Drizzle,130,2012-12-15 11:35:00
5:55 AM,35.6,32.0,87,29.71,7.0,ESE,4.6,-,0.01,,Light Drizzle,120,2012-12-15 11:55:00
6:15 AM,35.6,32.0,87,29.71,7.0,SE,5.8,-,N/A,,Light Drizzle,130,2012-12-15 12:15:00
6:35 AM,33.8,32.0,93,29.70,3.0,SE,3.5,-,N/A,Rain,Rain,130,2012-12-15 12:35:00
6:55 AM,33.8,33.8,100,29.70,2.0,ESE,4.6,-,0.04,Rain,Rain,120,2012-12-15 12:55:00
7:15 AM,33.8,33.8,100,29.69,1.8,ESE,6.9,-,0.04,,Overcast,120,2012-12-15 13:15:00
7:35 AM,33.8,33.8,100,29.68,2.0,ESE,4.6,-,0.07,Rain,Rain,110,2012-12-15 13:35:00
7:55 AM,33.8,33.8,100,29.66,1.5,East,4.6,-,0.11,Rain,Light Rain,100,2012-12-15 13:55:00
8:15 AM,33.8,33.8,100,29.65,1.0,East,4.6,-,0.02,Rain,Light Rain,90,2012-12-15 14:15:00
8:35 AM,33.8,33.8,100,29.65,1.0,ESE,4.6,-,0.04,Rain,Rain,110,2012-12-15 14:35:00
8:55 AM,33.8,33.8,100,29.64,1.0,ESE,3.5,-,0.07,Rain,Rain,110,2012-12-15 14:55:00
9:15 AM,33.8,33.8,100,29.65,1.2,SE,3.5,-,0.02,Rain,Rain,130,2012-12-15 15:15:00
9:35 AM,33.8,33.8,100,29.64,1.5,Calm,Calm,-,0.04,Rain,Light Rain,0,2012-12-15 15:35:00
9:55 AM,33.8,33.8,100,29.65,1.0,Calm,Calm,-,0.06,Rain,Rain,0,2012-12-15 15:55:00
10:15 AM,35.6,33.8,93,29.64,1.2,ESE,3.5,-,0.01,Rain,Rain,110,2012-12-15 16:15:00
10:35 AM,35.6,35.6,100,29.63,1.5,ESE,4.6,-,0.01,Rain,Light Rain,120,2012-12-15 16:35:00
10:55 AM,35.6,35.6,100,29.62,2.0,ESE,3.5,-,0.02,Rain,Rain,110,2012-12-15 16:55:00
11:15 AM,35.6,35.6,100,29.60,3.0,SE,5.8,-,0.01,Rain,Light Rain,140,2012-12-15 17:15:00
11:35 AM,35.6,35.6,100,29.59,4.0,SE,5.8,-,0.02,Rain,Light Rain,130,2012-12-15 17:35:00
11:55 AM,35.6,35.6,100,29.58,5.0,SE,6.9,-,0.03,Rain,Light Rain,140,2012-12-15 17:55:00
12:15 PM,35.6,33.8,93,29.58,4.0,SSE,6.9,-,0.02,Rain,Light Rain,150,2012-12-15 18:15:00
12:35 PM,35.6,33.8,93,29.57,5.0,SSE,5.8,-,0.03,Rain,Light Rain,150,2012-12-15 18:35:00
12:55 PM,35.6,33.8,93,29.56,5.0,SSE,5.8,-,0.03,Rain,Light Rain,150,2012-12-15 18:55:00
1:15 PM,35.6,33.8,93,29.55,4.0,SSE,4.6,-,0.01,,Drizzle,150,2012-12-15 19:15:00
1:35 PM,35.6,33.8,93,29.54,5.0,SSE,5.8,-,0.02,Rain,Rain,150,2012-12-15 19:35:00
1:55 PM,35.6,33.8,93,29.53,4.0,SSE,4.6,-,0.02,Rain,Rain,150,2012-12-15 19:55:00
2:15 PM,35.6,35.6,100,29.53,4.0,SSE,6.9,-,N/A,,Light Drizzle,150,2012-12-15 20:15:00
2:35 PM,35.6,33.8,93,29.53,2.5,SSE,5.8,-,N/A,,Drizzle,150,2012-12-15 20:35:00
2:55 PM,35.6,33.8,93,29.53,2.5,SE,3.5,-,N/A,,Light Drizzle,140,2012-12-15 20:55:00
3:15 PM,35.6,33.8,93,29.53,3.0,SSE,6.9,-,0.01,,Overcast,160,2012-12-15 21:15:00
3:35 PM,35.6,33.8,93,29.53,4.0,SE,4.6,-,0.01,,Overcast,140,2012-12-15 21:35:00
3:55 PM,35.6,33.8,93,29.53,2.0,SE,3.5,-,0.01,,Overcast,130,2012-12-15 21:55:00
4:15 PM,35.6,33.8,93,29.53,1.2,ESE,3.5,-,N/A,,Drizzle,120,2012-12-15 22:15:00
4:35 PM,35.6,33.8,93,29.53,1.5,Calm,Calm,-,N/A,,Light Drizzle,0,2012-12-15 22:35:00
4:55 PM,35.6,33.8,93,29.53,2.5,Calm,Calm,-,N/A,,Light Drizzle,0,2012-12-15 22:55:00
5:15 PM,33.8,33.8,100,29.53,2.0,Calm,Calm,-,0.01,,Overcast,0,2012-12-15 23:15:00
5:35 PM,33.8,33.8,100,29.53,1.2,Calm,Calm,-,0.01,,Overcast,0,2012-12-15 23:35:00
5:55 PM,33.8,33.8,100,29.53,1.8,Calm,Calm,-,0.01,,Overcast,0,2012-12-15 23:55:00
6:15 PM,33.8,33.8,100,29.53,1.2,Calm,Calm,-,N/A,,Drizzle,0,2012-12-16 00:15:00
6:35 PM,33.8,33.8,100,29.53,2.0,Calm,Calm,-,N/A,Rain,Light Rain,0,2012-12-16 00:35:00
6:55 PM,33.8,33.8,100,29.53,1.8,Calm,Calm,-,N/A,,Drizzle,0,2012-12-16 00:55:00
7:15 PM,33.8,33.8,100,29.53,1.0,Calm,Calm,-,N/A,,Overcast,0,2012-12-16 01:15:00
7:35 PM,33.8,33.8,100,29.53,0.8,Calm,Calm,-,N/A,,Overcast,0,2012-12-16 01:35:00
7:55 PM,33.8,33.8,100,29.53,0.5,Calm,Calm,-,0.01,Rain,Rain,0,2012-12-16 01:55:00
8:15 PM,33.8,33.8,100,29.53,0.8,Calm,Calm,-,N/A,,Drizzle,0,2012-12-16 02:15:00
8:35 PM,33.8,33.8,100,29.53,0.5,Calm,Calm,-,N/A,Rain,Light Rain,0,2012-12-16 02:35:00
8:55 PM,33.8,33.8,100,29.53,0.8,Calm,Calm,-,N/A,Rain,Light Rain,0,2012-12-16 02:55:00
9:15 PM,33.8,32.0,93,29.53,0.5,Calm,Calm,-,0.01,Snow,Light Snow,0,2012-12-16 03:15:00
9:35 PM,32.0,32.0,100,29.53,0.5,Calm,Calm,-,0.01,Rain,Light Rain,0,2012-12-16 03:35:00
9:55 PM,32.0,32.0,100,29.52,0.5,Calm,Calm,-,0.01,Snow,Light Snow,0,2012-12-16 03:55:00
10:15 PM,33.8,32.0,93,29.52,0.5,Calm,Calm,-,N/A,Rain,Rain,0,2012-12-16 04:15:00
10:35 PM,33.8,33.8,100,29.53,0.8,Calm,Calm,-,0.01,Rain,Light Rain,0,2012-12-16 04:35:00
10:55 PM,32.0,32.0,100,29.53,0.8,Calm,Calm,-,0.01,Rain,Light Rain,0,2012-12-16 04:55:00
11:15 PM,32.0,32.0,100,29.53,0.5,Calm,Calm,-,0.01,Rain,Light Rain,0,2012-12-16 05:15:00
11:35 PM,32.0,32.0,100,29.53,1.2,Calm,Calm,-,0.02,Rain,Light Rain,0,2012-12-16 05:35:00
11:55 PM,32.0,32.0,100,29.53,3.0,Calm,Calm,-,0.02,Snow,Light Snow,0,2012-12-16 05:55:00